H1 CPF 2 NER 2024 2 3 9 034 01 glonass142 H2 2001801 9142 45358 2024 2 3 0 0 0 2024 2 6 23 45 0 900 1 1 0 0 0 1 H9 10 0 60343 0.00000 0 -2583927.230 -13254237.940 21662942.864 10 0 60343 900.00000 0 -201419.541 -11932042.825 22565930.269 10 0 60343 1800.00000 0 2348463.869 -10753855.758 23031667.884 10 0 60343 2700.00000 0 5005933.343 -9755533.580 23051121.069 10 0 60343 3600.00000 0 7705573.664 -8961978.671 22623877.894 10 0 60343 4500.00000 0 10378825.591 -8386189.110 21758159.732 10 0 60343 5400.00000 0 12956606.905 -8028822.727 20470668.008 10 0 60343 6300.00000 0 15371965.786 -7878292.948 18786269.531 10 0 60343 7200.00000 0 17562657.725 -7911392.368 16737525.567 10 0 60343 8100.00000 0 19473539.958 -8094418.115 14364072.667 10 0 60343 9000.00000 0 21058684.514 -8384752.197 11711865.981 10 0 60343 9900.00000 0 22283122.110 -8732830.813 8832298.555 10 0 60343 10800.00000 0 23124144.118 -9084420.132 5781212.633 10 0 60343 11700.00000 0 23572107.851 -9383102.757 2617821.348 10 0 60343 12600.00000 0 23630710.939 -9572869.816 -596438.652 10 0 60343 13500.00000 0 23316722.794 -9600708.684 -3799101.467 10 0 60343 14400.00000 0 22659183.884 -9419076.064 -6927889.634 10 0 60343 15300.00000 0 21698106.178 -8988150.640 -9921930.935 10 0 60343 16200.00000 0 20482729.255 -8277768.493 -12722949.955 10 0 60343 17100.00000 0 19069405.569 -7268957.762 -15276410.311 10 0 60343 18000.00000 0 17519204.185 -5955005.882 -17532584.424 10 0 60343 18900.00000 0 15895334.292 -4342012.545 -19447529.244 10 0 60343 19800.00000 0 14260497.458 -2448903.302 -20983948.307 10 0 60343 20700.00000 0 12674280.501 -306901.678 -22111922.855 10 0 60343 21600.00000 0 11190699.018 2041519.415 -22809497.569 10 0 60343 22500.00000 0 9855995.041 4544164.113 -23063109.409 10 0 60343 23400.00000 0 8706781.315 7141054.826 -22867851.274 10 0 60343 24300.00000 0 7768609.875 9766707.692 -22227565.517 10 0 60343 25200.00000 0 7055024.437 12352647.646 -21154765.673 10 0 60343 26100.00000 0 6567135.605 14830058.334 -19670388.194 10 0 60343 27000.00000 0 6293735.612 17132456.495 -17803379.253 10 0 60343 27900.00000 0 6211946.540 19198279.369 -15590124.945 10 0 60343 28800.00000 0 6288373.283 20973277.340 -13073736.283 10 0 60343 29700.00000 0 6480711.285 22412612.252 -10303203.299 10 0 60343 30600.00000 0 6739739.763 23482574.256 -7332435.119 10 0 60343 31500.00000 0 7011614.992 24161846.116 -4219205.220 10 0 60343 32400.00000 0 7240365.574 24442263.072 -1024022.975 10 0 60343 33300.00000 0 7370483.279 24329037.615 2191046.081 10 0 60343 34200.00000 0 7349499.186 23840441.072 5363587.747 10 0 60343 35100.00000 0 7130435.762 23006956.772 8432050.603 10 0 60343 36000.00000 0 6674030.977 21869941.574 11336937.715 10 0 60343 36900.00000 0 5950640.456 20479853.079 14021955.481 10 0 60343 37800.00000 0 4941737.436 18894117.651 16435097.713 10 0 60343 38700.00000 0 3640947.287 17174729.045 18529644.535 10 0 60343 39600.00000 0 2054572.960 15385678.241 20265057.610 10 0 60343 40500.00000 0 201588.919 13590321.611 21607755.360 10 0 60343 41400.00000 0 -1886896.872 11848796.652 22531754.298 10 0 60343 42300.00000 0 -4168691.409 10215592.181 23019165.048 10 0 60343 43200.00000 0 -6592033.118 8737373.160 23060534.353 10 0 60343 44100.00000 0 -9097514.736 7451149.609 22655027.016 10 0 60343 45000.00000 0 -11620334.314 6382864.825 21810444.489 10 0 60343 45900.00000 0 -14092782.531 5546460.776 20543079.576 10 0 60343 46800.00000 0 -16446864.658 4943458.962 18877409.510 10 0 60343 47700.00000 0 -18616949.623 4563073.790 16845632.473 10 0 60343 48600.00000 0 -20542337.202 4382853.554 14487055.403 10 0 60343 49500.00000 0 -22169637.220 4369822.182 11847343.729 10 0 60343 50400.00000 0 -23454861.943 4482074.014 8977646.366 10 0 60343 51300.00000 0 -24365144.273 4670754.725 5933611.903 10 0 60343 52200.00000 0 -24880009.527 4882345.044 2774314.236 10 0 60343 53100.00000 0 -24992146.902 5061150.834 -438891.903 10 0 60343 54000.00000 0 -24707647.506 5151893.942 -3643563.422 10 0 60343 54900.00000 0 -24045698.174 5102293.595 -6777385.919 10 0 60343 55800.00000 0 -23037743.256 4865528.057 -9779391.077 10 0 60343 56700.00000 0 -21726149.110 4402471.081 -12591149.964 10 0 60343 57600.00000 0 -20162427.193 3683606.957 -15157918.175 10 0 60343 58500.00000 0 -18405090.463 2690541.474 -17429709.621 10 0 60343 59400.00000 0 -16517233.402 1417043.197 -19362277.292 10 0 60343 60300.00000 0 -14563937.665 -130430.614 -20917981.271 10 0 60343 61200.00000 0 -12609612.718 -1932747.250 -22066526.626 10 0 60343 62100.00000 0 -10715383.423 -3958651.828 -22785556.574 10 0 60343 63000.00000 0 -8936634.354 -6165838.649 -23061089.263 10 0 60343 63900.00000 0 -7320813.835 -8502496.651 -22887789.730 10 0 60343 64800.00000 0 -5905589.475 -10909264.982 -22269071.858 10 0 60343 65700.00000 0 -4717431.932 -13321517.382 -21217028.579 10 0 60343 66600.00000 0 -3770685.452 -15671880.148 -19752191.873 10 0 60343 67500.00000 0 -3067162.984 -17892878.607 -17903127.520 10 0 60343 68400.00000 0 -2596281.474 -19919601.600 -15705872.744 10 0 60343 69300.00000 0 -2335730.080 -21692272.640 -13203228.011 10 0 60343 70200.00000 0 -2252641.496 -23158620.389 -10443917.167 10 0 60343 71100.00000 0 -2305215.322 -24275949.543 -7481632.640 10 0 60343 72000.00000 0 -2444723.418 -25012825.826 -4373984.856 10 0 60343 72900.00000 0 -2617811.052 -25350305.198 -1181376.832 10 0 60343 73800.00000 0 -2768995.391 -25282656.557 2034173.616 10 0 60343 74700.00000 0 -2843254.688 -24817548.677 5210240.600 10 0 60343 75600.00000 0 -2788598.007 -23975694.612 8285202.017 10 0 60343 76500.00000 0 -2558506.427 -22789969.627 11199432.779 10 0 60343 77400.00000 0 -2114142.385 -21304040.612 13896456.319 10 0 60343 78300.00000 0 -1426233.896 -19570565.207 16324032.334 10 0 60343 79200.00000 0 -476554.223 -17649036.503 18435160.316 10 0 60343 80100.00000 0 741065.276 -15603363.566 20188980.256 10 0 60343 81000.00000 0 2220231.905 -13499288.559 21551554.091 10 0 60343 81900.00000 0 3942019.516 -11401747.567 22496513.888 10 0 60343 82800.00000 0 5875527.124 -9372284.153 23005565.204 10 0 60343 83700.00000 0 7978945.997 -7466622.159 23068836.808 10 0 60343 84600.00000 0 10201092.088 -5732497.427 22685070.555 10 0 60343 85500.00000 0 12483341.536 -4207837.398 21861647.985 10 0 60344 0.00000 0 14761890.181 -2919363.231 20614453.124 10 0 60344 900.00000 0 16970245.932 -1881671.026 18967572.847 10 0 60344 1800.00000 0 19041848.764 -1096831.357 16952841.495 10 0 60344 2700.00000 0 20912714.534 -554521.078 14609235.268 10 0 60344 3600.00000 0 22523990.281 -232683.372 11982128.439 10 0 60344 4500.00000 0 23824316.047 -98687.591 9122424.038 10 0 60344 5400.00000 0 24771894.340 -110940.296 6085574.904 10 0 60344 6300.00000 0 25336180.311 -220879.724 2930513.272 10 0 60344 7200.00000 0 25499121.063 -375269.469 -281490.761 10 0 60344 8100.00000 0 25255891.223 -518694.239 -3488019.851 10 0 60344 9000.00000 0 24615092.839 -596151.615 -6626725.736 10 0 60344 9900.00000 0 23598410.219 -555629.322 -9636547.091 10 0 60344 10800.00000 0 22239733.352 -350557.783 -12458904.473 10 0 60344 11700.00000 0 20583786.103 57967.204 -15038848.284 10 0 60344 12600.00000 0 18684316.442 699287.242 -17326136.506 10 0 60344 13500.00000 0 16601924.569 1591691.404 -19276220.472 10 0 60344 14400.00000 0 14401620.151 2741398.173 -20851118.817 10 0 60344 15300.00000 0 12150211.324 4142053.761 -22020162.130 10 0 60344 16200.00000 0 9913635.137 5774769.388 -22760593.534 10 0 60344 17100.00000 0 7754341.377 7608697.197 -23058013.404 10 0 60344 18000.00000 0 5728839.356 9602121.650 -22906659.572 10 0 60344 18900.00000 0 3885510.080 11704021.372 -22309517.739 10 0 60344 19800.00000 0 2262774.844 13856036.554 -21278260.096 10 0 60344 20700.00000 0 887696.120 15994759.812 -19833013.610 10 0 60344 21600.00000 0 -224931.806 18054254.729 -18001962.712 10 0 60344 22500.00000 0 -1072965.752 19968696.696 -15820794.399 10 0 60344 23400.00000 0 -1666755.680 21675025.401 -13331996.864 10 0 60344 24300.00000 0 -2028454.306 23115497.868 -10584025.690 10 0 60344 25200.00000 0 -2190825.222 24240035.085 -7630354.221 10 0 60344 26100.00000 0 -2195601.592 25008264.017 -4528427.172 10 0 60344 27000.00000 0 -2091466.407 25391169.686 -1338538.336 10 0 60344 27900.00000 0 -1931741.116 25372288.528 1877345.203 10 0 60344 28800.00000 0 -1771881.569 24948393.616 5056788.960 10 0 60344 29700.00000 0 -1666888.078 24129643.828 8138103.217 10 0 60344 30600.00000 0 -1668739.674 22939191.549 11061537.741 10 0 60344 31500.00000 0 -1823961.335 21412266.155 13770435.857 10 0 60344 32400.00000 0 -2171426.933 19594772.365 16212325.817 10 0 60344 33300.00000 0 -2740490.534 17541462.489 18339928.931 10 0 60344 34200.00000 0 -3549524.625 15313759.091 20112065.710 10 0 60344 35100.00000 0 -4604926.713 12977318.675 21494443.518 10 0 60344 36000.00000 0 -5900636.186 10599437.289 22460311.569 10 0 60344 36900.00000 0 -7418182.100 8246405.147 22990971.602 10 0 60344 37800.00000 0 -9127260.685 5980919.060 23076135.266 10 0 60344 38700.00000 0 -10986819.520 3859658.854 22714121.877 10 0 60344 39600.00000 0 -12946604.486 1931127.072 21911893.004 10 0 60344 40500.00000 0 -14949106.538 233840.388 20684923.065 10 0 60344 41400.00000 0 -16931828.761 -1205053.298 19056907.927 10 0 60344 42300.00000 0 -18829780.712 -2370675.458 17059316.318 10 0 60344 43200.00000 0 -20578097.362 -3260798.434 14730791.633 10 0 60344 44100.00000 0 -22114674.310 -3885692.403 12116414.514 10 0 60344 45000.00000 0 -23382709.781 -4267444.450 9266839.298 10 0 60344 45900.00000 0 -24333047.163 -4438778.475 6237320.037 10 0 60344 46800.00000 0 -24926219.681 -4441425.589 3086644.111 10 0 60344 47700.00000 0 -25134110.730 -4324113.760 -124006.286 10 0 60344 48600.00000 0 -24941159.170 -4140261.766 -3332242.832 10 0 60344 49500.00000 0 -24345057.740 -3945475.322 -6475686.660 10 0 60344 50400.00000 0 -23356913.980 -3794951.967 -9493186.606 10 0 60344 51300.00000 0 -22000865.682 -3740905.440 -12326015.766 10 0 60344 52200.00000 0 -20313166.013 -3830119.751 -14919022.218 10 0 60344 53100.00000 0 -18340775.956 -4101737.756 -17221710.630 10 0 60344 54000.00000 0 -16139522.658 -4585379.229 -19189232.928 10 0 60344 54900.00000 0 -13771900.617 -5299669.437 -20783268.098 10 0 60344 55800.00000 0 -11304607.826 -6251241.744 -21972773.512 10 0 60344 56700.00000 0 -8805920.052 -7434257.656 -22734592.870 10 0 60344 57600.00000 0 -6343013.140 -8830465.667 -23053908.829 10 0 60344 58500.00000 0 -3979345.300 -10409797.394 -22924531.500 10 0 60344 59400.00000 0 -1772208.595 -12131476.701 -22349017.350 10 0 60344 60300.00000 0 229448.502 -13945595.756 -21338616.341 10 0 60344 61200.00000 0 1986837.122 -15795092.168 -19913048.568 10 0 60344 62100.00000 0 3472707.678 -17618044.389 -18100114.978 10 0 60344 63000.00000 0 4672236.783 -19350189.068 -15935150.004 10 0 60344 63900.00000 0 5583385.791 -20927554.590 -13460327.090 10 0 60344 64800.00000 0 6216717.757 -22289100.166 -10723830.989 10 0 60344 65700.00000 0 6594682.437 -23379249.519 -7778913.374 10 0 60344 66600.00000 0 6750401.399 -24150212.725 -4682850.658 10 0 60344 67500.00000 0 6726006.360 -24563998.760 -1495824.866 10 0 60344 68400.00000 0 6570602.620 -24594034.407 1720250.135 10 0 60344 69300.00000 0 6337945.087 -24226321.909 4902933.655 10 0 60344 70200.00000 0 6083926.286 -23460087.267 7990470.659 10 0 60344 71100.00000 0 5863983.314 -22307892.539 10922987.935 10 0 60344 72000.00000 0 5730533.798 -20795208.040 13643650.716 10 0 60344 72900.00000 0 5730549.262 -18959462.863 16099757.647 10 0 60344 73800.00000 0 5903368.182 -16848613.732 18243753.469 10 0 60344 74700.00000 0 6278840.681 -14519292.056 20034140.572 10 0 60344 75600.00000 0 6875882.648 -12034606.200 21436272.810 10 0 60344 76500.00000 0 7701499.926 -9461689.872 22423017.295 10 0 60344 77400.00000 0 8750323.569 -6869097.717 22975272.370 10 0 60344 78300.00000 0 10004676.021 -4324155.095 23082332.666 10 0 60344 79200.00000 0 11435166.135 -1890370.682 22742094.771 10 0 60344 80100.00000 0 13001789.212 374982.175 21961099.818 10 0 60344 81000.00000 0 14655487.355 2423016.430 20754412.044 10 0 60344 81900.00000 0 16340106.438 4215026.656 19145335.182 10 0 60344 82800.00000 0 17994669.395 5723855.181 17164971.334 10 0 60344 83700.00000 0 19555872.212 6934773.080 14851629.804 10 0 60344 84600.00000 0 20960699.325 7845839.928 12250096.122 10 0 60344 85500.00000 0 22149049.715 8467727.661 9410774.248 10 0 60345 0.00000 0 23066263.892 8823016.154 6388717.797 10 0 60345 900.00000 0 23665446.071 8944990.337 3242566.618 10 0 60345 1800.00000 0 23909482.135 8875989.162 33412.926 10 0 60345 2700.00000 0 23772669.319 8665376.814 -3176386.504 10 0 60345 3600.00000 0 23241886.536 8367221.602 -6324424.802 10 0 60345 4500.00000 0 22317255.177 8037781.407 -9349463.606 10 0 60345 5400.00000 0 21012261.037 7732902.699 -12192631.123 10 0 60345 6300.00000 0 19353330.891 7505444.157 -14798575.549 10 0 60345 7200.00000 0 17378880.325 7402834.998 -17116550.494 10 0 60345 8100.00000 0 15137871.891 7464872.527 -19101410.519 10 0 60345 9000.00000 0 12687943.348 7721853.263 -20714496.782 10 0 60345 9900.00000 0 10093184.062 8193117.825 -21924395.028 10 0 60345 10800.00000 0 7421652.318 8886072.102 -22707550.884 10 0 60345 11700.00000 0 4742737.278 9795726.996 -23048730.377 10 0 60345 12600.00000 0 2124475.658 10904776.907 -22941316.677 10 0 60345 13500.00000 0 -369064.988 12184214.271 -22387437.446 10 0 60345 14400.00000 0 -2680227.502 13594454.728 -21397920.442 10 0 60345 15300.00000 0 -4759929.508 15086925.780 -19992078.492 10 0 60345 16200.00000 0 -6569461.377 16606052.214 -18197328.225 10 0 60345 17100.00000 0 -8081843.774 18091554.725 -16048650.262 10 0 60345 18000.00000 0 -9282689.370 19480964.866 -13587901.666 10 0 60345 18900.00000 0 -10170534.314 20712250.314 -10862994.414 10 0 60345 19800.00000 0 -10756627.427 21726439.748 -7926956.275 10 0 60345 20700.00000 0 -11064187.951 22470136.679 -4836892.917 10 0 60345 21600.00000 0 -11127165.099 22897816.296 -1652871.991 10 0 60345 22500.00000 0 -10988553.598 22973808.681 1563248.579 10 0 60345 23400.00000 0 -10698337.935 22673885.076 4749024.695 10 0 60345 24300.00000 0 -10311153.560 21986380.735 7842638.830 10 0 60345 25200.00000 0 -9883764.814 20912807.554 10784097.593 10 0 60345 26100.00000 0 -9472466.774 19467931.085 13516390.872 10 0 60345 27000.00000 0 -9130520.952 17679309.062 15986590.354 10 0 60345 27900.00000 0 -8905732.964 15586310.894 18146866.703 10 0 60345 28800.00000 0 -8838273.954 13238659.065 19955406.494 10 0 60345 29700.00000 0 -8958837.022 10694552.968 21377212.143 10 0 60345 30600.00000 0 -9287205.737 8018452.649 22384770.448 10 0 60345 31500.00000 0 -9831294.527 5278613.684 22958577.816 10 0 60345 32400.00000 0 -10586701.106 2544474.377 23087512.939 10 0 60345 33300.00000 0 -11536789.955 -115997.778 22769050.336 10 0 60345 34200.00000 0 -12653303.910 -2638891.788 22009310.889 10 0 60345 35100.00000 0 -13897479.191 -4966765.312 20822948.355 10 0 60345 36000.00000 0 -15221618.350 -7050784.635 19232873.519 10 0 60345 36900.00000 0 -16571056.631 -8852504.818 17269820.554 10 0 60345 37800.00000 0 -17886440.632 -10345216.960 14971762.899 10 0 60345 38700.00000 0 -19106225.043 -11514807.280 12383188.777 10 0 60345 39600.00000 0 -20169283.574 -12360092.554 9554249.222 10 0 60345 40500.00000 0 -21017524.955 -12892618.195 6539794.058 10 0 60345 41400.00000 0 -21598404.133 -13135927.537 3398313.654 10 0 60345 42300.00000 0 -21867222.519 -13124333.105 190806.543 10 0 60345 43200.00000 0 -21789119.705 -12901241.710 -3020405.289 10 0 60345 44100.00000 0 -21340671.469 -12517104.190 -6172890.273 10 0 60345 45000.00000 0 -20511025.330 -12027076.744 -9205326.146 10 0 60345 45900.00000 0 -19302524.191 -11488493.206 -12058699.482 10 0 60345 46800.00000 0 -17730790.194 -10958255.922 -14677461.730 10 0 60345 47700.00000 0 -15824263.769 -10490256.443 -17010618.371 10 0 60345 48600.00000 0 -13623215.969 -10132936.132 -19012729.227 10 0 60345 49500.00000 0 -11178274.449 -9927090.793 -20644799.829 10 0 60345 50400.00000 0 -8548524.111 -9904013.098 -21875045.959 10 0 60345 51300.00000 0 -5799261.338 -10084052.126 -22679516.235 10 0 60345 52200.00000 0 -2999495.326 -10475651.542 -23042560.471 10 0 60345 53100.00000 0 -219300.619 -11074907.563 -22957134.681 10 0 60345 54000.00000 0 2472868.897 -11865665.734 -22424936.912 10 0 60345 54900.00000 0 5012792.818 -12820152.637 -21456371.407 10 0 60345 55800.00000 0 7342915.255 -13900115.977 -20070341.973 10 0 60345 56700.00000 0 9414493.304 -15058424.875 -18293878.827 10 0 60345 57600.00000 0 11189374.126 -16241062.757 -16161606.391 10 0 60345 58500.00000 0 12641327.510 -17389428.503 -13715062.732 10 0 60345 59400.00000 0 13756879.615 -18442848.519 -11001884.238 10 0 60345 60300.00000 0 14535614.622 -19341193.429 -8074871.815 10 0 60345 61200.00000 0 14989933.507 -20027488.703 -4990957.331 10 0 60345 62100.00000 0 15144282.017 -20450408.855 -1810090.949 10 0 60345 63000.00000 0 15033882.304 -20566549.872 1405928.422 10 0 60345 63900.00000 0 14703023.444 -20342384.018 4594656.268 10 0 60345 64800.00000 0 14202984.519 -19755814.754 7694215.382 10 0 60345 65700.00000 0 13589679.132 -18797266.458 10644494.783 10 0 60345 66600.00000 0 12921121.573 -17470263.333 13388311.301 10 0 60345 67500.00000 0 12254821.981 -15791473.346 15872511.606 10 0 60345 68400.00000 0 11645220.328 -13790215.386 18048993.875 10 0 60345 69300.00000 0 11141267.023 -11507450.109 19875630.060 10 0 60345 70200.00000 0 10784251.406 -8994296.198 21317071.937 10 0 60345 71100.00000 0 10605968.728 -6310133.143 22345426.392 10 0 60345 72000.00000 0 10627301.974 -3520368.497 22940787.916 10 0 60345 72900.00000 0 10857277.475 -693961.121 23091618.926 10 0 60345 73800.00000 0 11292633.687 2099198.332 22794971.193 10 0 60345 74700.00000 0 11917921.252 4790942.572 22056544.397 10 0 60345 75600.00000 0 12706130.559 7317410.000 20890580.612 10 0 60345 76500.00000 0 13619821.262 9621448.642 19319596.273 10 0 60345 77400.00000 0 14612707.389 11654743.187 17373956.047 10 0 60345 78300.00000 0 15631632.638 13379577.827 15091295.796 10 0 60345 79200.00000 0 16618854.084 14770162.339 12515804.606 10 0 60345 80100.00000 0 17514539.170 15813466.562 9697378.616 10 0 60345 81000.00000 0 18259371.778 16509528.776 6690662.026 10 0 60345 81900.00000 0 18797157.769 16871225.046 3553992.976 10 0 60345 82800.00000 0 19077319.930 16923509.205 348274.279 10 0 60345 83700.00000 0 19057176.596 16702155.485 -2864209.250 10 0 60345 84600.00000 0 18703906.703 16252056.766 -6021003.729 10 0 60345 85500.00000 0 17996117.009 15625150.441 -9060705.319 10 0 60346 0.00000 0 16924943.777 14878059.834 -11924160.941 10 0 60346 900.00000 0 15494640.157 14069550.955 -14555627.883 10 0 60346 1800.00000 0 13722624.315 13257913.766 -16903865.120 10 0 60346 2700.00000 0 11638982.779 12498378.062 -18923139.433 10 0 60346 3600.00000 0 9285449.801 11840674.924 -20574122.215 10 0 60346 4500.00000 0 6713903.918 11326847.154 -21824660.597 10 0 60346 5400.00000 0 3984443.849 10989401.814 -22650407.289 10 0 60346 6300.00000 0 1163123.530 10849883.390 -23035296.758 10 0 60346 7200.00000 0 -1680559.525 10917928.051 -22971858.447 10 0 60346 8100.00000 0 -4476318.095 11190839.061 -22461361.045 10 0 60346 9000.00000 0 -7155760.948 11653701.164 -21513785.125 10 0 60346 9900.00000 0 -9654998.711 12280028.917 -20147624.900 10 0 60346 10800.00000 0 -11917061.695 13032921.258 -18389523.156 10 0 60346 11700.00000 0 -13894029.456 13866673.161 -16273746.704 10 0 60346 12600.00000 0 -15548783.989 14728775.810 -13841512.853 10 0 60346 13500.00000 0 -16856314.436 15562220.311 -11140180.374 10 0 60346 14400.00000 0 -17804520.057 16308007.094 -8222321.101 10 0 60346 15300.00000 0 -18394479.436 16907754.478 -5144690.762 10 0 60346 16200.00000 0 -18640176.378 17306295.765 -1967119.634 10 0 60346 17100.00000 0 -18567695.883 17454154.831 1248654.844 10 0 60346 18000.00000 0 -18213925.843 17309795.456 4440190.211 10 0 60346 18900.00000 0 -17624820.773 16841549.376 7545552.076 10 0 60346 19800.00000 0 -16853302.163 16029141.791 10504514.360 10 0 60346 20700.00000 0 -15956884.941 14864750.129 13259723.325 10 0 60346 21600.00000 0 -14995130.712 13353551.622 15757803.063 10 0 60346 22500.00000 0 -14027035.167 11513736.624 17950381.590 10 0 60346 23400.00000 0 -13108459.437 9375986.923 19795018.416 10 0 60346 24300.00000 0 -12289712.803 6982440.390 21256016.635 10 0 60346 25200.00000 0 -11613387.500 4385184.384 22305104.900 10 0 60346 26100.00000 0 -11112535.611 1644339.679 22921977.143 10 0 60346 27000.00000 0 -10809263.609 -1174186.770 23094680.486 10 0 60346 27900.00000 0 -10713802.743 -4001188.411 22819844.537 10 0 60346 28800.00000 0 -10824093.795 -6766783.491 22102747.933 10 0 60346 29700.00000 0 -11125903.461 -9403070.094 20957220.783 10 0 60346 30600.00000 0 -11593467.736 -11846703.285 19405384.455 10 0 60346 31500.00000 0 -12190635.836 -14041288.783 17477232.980 10 0 60346 32400.00000 0 -12872467.417 -15939494.857 15210063.115 10 0 60346 33300.00000 0 -13587216.853 -17504795.426 12647762.919 10 0 60346 34200.00000 0 -14278621.968 -18712772.238 9839971.478 10 0 60346 35100.00000 0 -14888401.496 -19551921.986 6841124.970 10 0 60346 36000.00000 0 -15358856.329 -20023934.579 3709406.703 10 0 60346 36900.00000 0 -15635464.824 -20143430.791 505621.018 10 0 60346 37800.00000 0 -15669362.043 -19937170.117 -2707987.295 10 0 60346 38700.00000 0 -15419597.375 -19442762.036 -5868944.987 10 0 60346 39600.00000 0 -14855073.923 -18706934.980 -8915769.691 10 0 60346 40500.00000 0 -13956086.137 -17783436.098 -11789172.243 10 0 60346 41400.00000 0 -12715389.065 -16730650.780 -14433217.814 10 0 60346 42300.00000 0 -11138752.313 -15609042.887 -16796422.383 10 0 60346 43200.00000 0 -9244973.615 -14478524.338 -18832762.468 10 0 60346 44100.00000 0 -7065349.796 -13395865.682 -20502577.804 10 0 60346 45000.00000 0 -4642625.914 -12412257.523 -21773348.914 10 0 60346 45900.00000 0 -2029465.434 -11571126.138 -22620334.125 10 0 60346 46800.00000 0 713495.458 -10906295.707 -23027053.513 10 0 60346 47700.00000 0 3519928.790 -10440574.764 -22985610.316 10 0 60346 48600.00000 0 6320336.219 -10184826.348 -22496843.647 10 0 60346 49500.00000 0 9044706.152 -10137560.748 -21570309.684 10 0 60346 50400.00000 0 11625196.017 -10285067.520 -20224091.841 10 0 60346 51300.00000 0 13998728.156 -10602080.572 -18484443.852 10 0 60346 52200.00000 0 16109391.492 -11052947.491 -16385272.898 10 0 60346 53100.00000 0 17910549.246 -11593252.931 -13967473.156 10 0 60346 54000.00000 0 19366565.443 -12171826.632 -11278123.060 10 0 60346 54900.00000 0 20454079.052 -12733050.393 -8369562.335 10 0 60346 55800.00000 0 21162773.629 -13219365.671 -5298367.282 10 0 60346 56700.00000 0 21495611.722 -13573875.115 -2124244.815 10 0 60346 57600.00000 0 21468525.841 -13742927.450 1091132.649 10 0 60346 58500.00000 0 21109580.651 -13678576.064 4285328.221 10 0 60346 59400.00000 0 20457643.280 -13340807.107 7396353.693 10 0 60346 60300.00000 0 19560619.135 -12699442.963 10363870.989 10 0 60346 61200.00000 0 18473328.645 -11735640.748 13130358.547 10 0 60346 62100.00000 0 17255115.039 -10442922.734 15642220.211 10 0 60346 63000.00000 0 15967284.129 -8827695.276 17850815.722 10 0 60346 63900.00000 0 14670483.594 -6909234.257 19713393.562 10 0 60346 64800.00000 0 13422131.353 -4719137.200 21193909.099 10 0 60346 65700.00000 0 12274000.055 -2300264.198 22263713.265 10 0 60346 66600.00000 0 11270057.944 294789.181 22902099.497 10 0 60346 67500.00000 0 10444655.409 3005624.730 23096699.279 10 0 60346 68400.00000 0 9821132.083 5766301.410 22843719.321 10 0 60346 69300.00000 0 9410901.929 8507829.907 22148016.107 10 0 60346 70200.00000 0 9213053.994 11160800.150 21023006.357 10 0 60346 71100.00000 0 9214485.264 13658034.432 19490414.667 10 0 60346 72000.00000 0 9390560.118 15937157.390 17579862.491 10 0 60346 72900.00000 0 9706269.026 17942977.313 15328305.352 10 0 60346 73800.00000 0 10117838.331 19629580.540 12779328.012 10 0 60346 74700.00000 0 10574724.037 20962052.241 9982310.089 10 0 60346 75600.00000 0 11021906.178 21917751.970 6991477.225 10 0 60346 76500.00000 0 11402387.407 22487090.556 3864855.343 10 0 60346 77400.00000 0 11659790.254 22673775.409 663147.726 10 0 60346 78300.00000 0 11740943.053 22494513.672 -2551443.452 10 0 60346 79200.00000 0 11598344.627 21978185.423 -5716428.092 10 0 60346 80100.00000 0 11192402.292 21164521.370 -8770247.669 10 0 60346 81000.00000 0 10493347.195 20102340.619 -11653478.888 10 0 60346 81900.00000 0 9482744.361 18847422.872 -14309997.293 10 0 60346 82800.00000 0 8154531.914 17460105.007 -16688077.354 10 0 60346 83700.00000 0 6515543.791 16002703.734 -18741406.838 10 0 60346 84600.00000 0 4585492.150 14536873.413 -20429995.116 10 0 60346 85500.00000 0 2396408.611 13121010.810 -21720957.177 99